Temp
24 21 20 20 20 20 20 21 20 20 20 19 19 18 19 19 18 18 18 19 19 19 19 19 19 18 18 18 18 18 18 18 18 18 18 18 18 18 18 19 19 19 18
25 22 20 20 20 20 20 20 20 20 20 20 19 19 19 19 18 18 18 18 19 19 19 19 19 18 18 18 18 18 18 18 18 18 18 18 18 18 18 19 19 18 17
25 23 20 20 20 20 20 20 20 20 20 20 19 19 19 19 18 18 18 18 19 18 18 18 18 18 18 18 17 17 17 18 18 19 18 18 17 17 17 18 18 18 17
25 22 22 20 20 20 20 20 20 20 20 20 19 19 19 18 18 18 18 18 18 18 18 18 18 18 18 18 17 17 17 18 19 19 19 20 18 17 18 17 17 17 17
24 22 22 20 20 20 20 20 20 20 20 20 20 19 19 19 19 18 18 18 18 18 18 18 18 18 18 17 17 17 16 18 19 20 21 20 19 17 17 17 17 17 17
24 24 21 21 20 19 19 20 20 20 20 20 19 19 19 19 19 18 18 18 18 18 18 18 18 18 18 17 17 16 18 19 19 20 20 19 19 17 17 17 17 17 17
25 24 21 20 20 19 19 19 19 19 19 19 19 19 19 19 19 18 18 18 18 18 18 17 18 18 17 17 18 17 18 18 18 18 18 19 17 17 16 17 17 17 16
24 24 22 20 19 19 19 19 19 19 19 19 19 19 19 18 18 18 18 19 18 18 18 18 18 18 17 17 18 17 17 17 17 18 18 18 17 16 17 17 17 16 16
24 23 23 20 19 19 19 19 19 19 19 19 19 19 19 18 18 18 18 18 18 17 17 17 18 17 17 17 18 17 17 17 18 17 17 17 17 16 17 17 16 16 16
23 22 23 22 21 20 19 19 19 19 19 19 19 19 18 18 18 17 17 17 18 17 17 17 17 17 17 17 18 18 18 18 17 17 16 16 17 16 16 16 16 15 15
22 22 22 23 23 21 21 20 19 19 19 18 18 18 18 18 17 17 17 17 16 16 16 16 16 17 17 17 17 18 18 19 17 17 16 16 17 15 15 15 15 15 15
22 22 22 22 22 23 21 20 19 19 18 18 18 18 18 19 18 18 17 17 16 16 16 16 16 16 17 16 17 17 18 19 18 17 16 16 16 16 15 15 15 14 14
22 22 21 22 21 21 22 21 19 19 19 19 19 19 19 19 19 18 17 16 16 16 16 16 16 16 18 17 16 18 19 20 20 18 16 15 16 15 15 15 15 15 15
22 22 22 21 21 20 21 22 21 19 18 18 18 18 18 19 18 19 18 17 17 17 17 17 17 17 18 17 17 18 18 19 19 18 16 16 16 15 15 15 14 14 14
21 21 20 20 20 20 20 21 22 22 19 18 18 18 18 18 18 19 19 18 18 18 18 17 18 17 16 17 16 17 17 18 19 17 16 15 15 15 15 14 14 14 14
21 20 20 19 19 19 20 20 22 22 22 19 18 17 18 17 18 18 19 19 19 19 19 18 18 16 15 16 17 17 17 17 18 18 15 15 14 15 15 14 14 14 14
21 20 20 19 18 19 19 19 21 21 18 20 18 17 17 16 17 18 18 19 19 19 19 17 17 17 16 17 17 17 17 17 17 17 15 14 14 14 14 14 14 14 13
20 20 19 19 18 18 18 19 19 20 19 17 18 17 17 16 16 17 17 18 19 19 18 17 17 16 16 17 16 17 18 17 17 16 15 14 14 14 14 14 14 14 14
18 18 18 17 17 17 18 18 18 19 19 17 17 17 17 17 16 16 17 17 18 18 18 17 16 16 16 16 16 16 16 16 16 16 14 14 14 14 14 14 14 13 13
15 15 16 17 17 17 17 18 18 17 18 18 17 16 17 16 16 15 15 16 16 17 17 17 16 16 17 16 15 15 15 15 15 14 13 14 14 14 13 13 13 12 12
14 14 15 16 16 17 16 17 17 16 16 16 16 16 15 16 16 15 15 15 15 15 16 15 16 16 16 16 14 14 13 14 14 14 13 13 13 13 13 13 12 12 12
10 9 12 14 16 16 16 17 16 15 16 15 15 15 15 15 16 15 14 14 14 15 14 15 14 15 15 14 13 12 11 11 11 12 13 12 12 12 12 12 12 12 12
8 8 9 11 12 14 14 15 15 15 15 15 15 14 14 14 15 14 14 14 14 14 14 14 14 14 13 13 13 14 11 13 10 10 11 12 11 11 12 12 11 11 12
6 6 9 10 11 11 11 13 13 14 14 14 14 13 13 14 14 14 14 14 13 13 13 13 13 14 13 12 12 14 15 15 13 10 9 10 11 10 11 10 11 10 11
4 5 5 7 8 10 11 11 12 13 13 13 13 12 12 13 13 13 13 13 13 13 13 13 12 12 12 12 13 13 14 14 15 14 11 9 10 11 10 10 10 10 10
4 4 4 5 5 7 9 10 11 12 12 11 12 12 11 12 12 12 12 13 13 13 12 12 13 12 12 12 12 13 13 13 14 15 15 12 11 10 9 9 9 10 10
Height
750 753 757 760 762 765 769 772 774 776 779 782 786 787 789 791 792 795 796 798 800 801 803 804 805 807 809 811 811 813 813 814 815 815 816 817 819 821 821 821 822 824 825
749 753 757 761 763 765 770 773 775 777 780 783 786 788 790 792 794 796 798 800 802 803 803 804 806 808 810 812 814 815 816 817 817 818 819 821 821 822 823 823 824 826 827
750 753 758 761 764 766 770 773 776 778 781 784 786 789 791 793 795 797 799 801 803 805 805 806 808 810 812 813 816 817 818 819 820 821 822 824 824 825 825 825 827 828 830
751 753 759 761 764 767 770 773 776 778 781 784 787 789 791 793 796 798 800 802 804 806 807 808 810 812 813 814 816 818 819 820 822 823 824 826 828 828 828 829 830 832 834
751 753 759 761 764 767 770 773 777 779 781 784 786 789 791 793 795 797 800 803 804 806 809 809 810 812 814 815 817 819 820 821 823 824 826 828 829 830 831 832 833 835 836
751 754 758 762 764 768 771 774 777 780 782 784 786 789 791 793 795 798 801 803 805 806 808 810 812 813 815 816 818 819 821 823 825 827 828 830 830 832 833 834 835 837 838
751 755 758 761 764 768 771 774 777 780 782 784 787 789 791 793 796 798 800 803 805 807 809 811 813 814 816 817 819 820 823 824 826 829 830 832 833 834 834 835 836 838 840
751 755 758 760 764 767 770 773 776 780 781 784 787 789 791 793 795 798 800 802 804 807 809 812 813 815 818 819 821 822 824 827 828 830 832 833 835 836 835 837 839 840 842
751 754 757 760 763 766 769 772 775 778 781 783 786 789 791 794 796 798 800 802 804 807 809 812 814 816 819 821 823 824 827 829 830 832 833 835 837 838 837 839 840 842 844
752 754 756 759 762 765 768 770 773 777 780 783 785 788 791 794 796 798 800 802 804 807 809 811 814 817 819 822 824 826 829 830 832 833 835 837 839 840 841 842 843 844 846
752 754 755 757 759 763 766 768 771 775 778 782 785 788 790 793 796 797 800 802 804 807 809 811 814 817 820 822 825 828 830 832 833 835 837 839 841 843 844 845 846 848 849
750 753 754 756 757 760 763 766 769 773 776 779 783 785 789 791 795 797 799 801 804 807 809 812 815 818 821 823 826 829 831 832 832 837 838 841 843 844 846 847 849 850 851
748 749 753 754 757 758 760 763 766 769 772 776 779 782 785 789 792 795 798 801 804 807 809 812 815 818 821 823 826 829 830 831 834 836 838 842 843 846 847 848 850 852 853
745 747 748 751 754 756 758 759 762 766 769 772 775 779 783 786 789 793 796 800 802 805 808 812 815 818 820 823 826 829 829 832 835 837 839 842 844 847 848 850 852 853 854
740 744 746 747 749 753 755 757 758 759 764 768 771 774 779 782 785 790 793 797 800 803 806 810 813 816 820 823 825 829 831 832 834 836 840 842 845 847 849 851 853 854 855
733 737 741 742 744 746 749 753 755 756 758 762 767 770 775 779 782 786 790 794 797 801 803 807 811 814 818 822 825 828 831 834 834 837 838 843 846 847 850 852 853 855 857
727 730 734 737 739 741 743 748 751 753 757 758 763 767 771 776 779 782 788 791 794 798 801 804 810 814 817 821 824 827 829 832 834 835 840 843 846 848 850 852 854 855 858
723 724 728 731 733 736 738 742 746 750 753 756 760 763 767 771 776 779 784 787 791 795 799 802 808 813 816 820 823 825 828 831 835 836 838 843 846 848 850 852 854 856 857
722 722 723 725 728 729 734 738 742 746 749 753 756 760 764 769 772 777 780 785 789 792 796 800 806 810 814 819 822 825 828 832 835 835 840 842 845 848 850 852 853 855 855
721 721 721 721 722 726 729 734 737 742 746 749 752 757 761 765 770 774 778 782 786 791 794 798 803 808 812 817 822 826 829 832 834 836 839 842 845 847 849 851 853 854 857
720 720 719 719 719 721 724 728 733 737 742 745 748 754 758 762 766 771 774 778 782 787 792 797 801 806 810 815 821 827 830 833 835 837 838 841 843 846 849 851 852 855 857
722 722 720 719 719 719 722 725 730 734 737 742 746 750 755 759 763 767 771 774 778 783 790 792 797 803 809 811 816 825 832 836 835 836 838 839 842 845 848 850 852 855 855
725 723 721 720 720 720 721 725 728 731 735 739 743 747 752 756 759 764 768 772 774 779 783 789 792 798 803 808 813 818 828 827 834 836 838 840 840 843 846 848 851 853 854
728 724 721 721 721 723 723 725 727 729 733 737 742 746 749 752 756 761 765 769 772 776 780 784 788 791 798 801 807 810 812 815 824 833 836 838 841 841 843 845 848 850 853
731 728 725 723 721 723 724 726 728 730 733 736 740 744 747 750 754 758 763 766 768 772 776 779 784 789 792 795 798 802 808 809 813 819 828 835 839 840 840 842 845 847 849
735 733 730 728 726 723 723 725 728 730 733 736 739 742 745 748 752 755 759 762 765 768 772 776 779 784 787 791 795 799 801 801 800 808 816 823 828 835 839 839 841 843 844
Wind_Speed
11 17 20 20 20 19 17 17 19 19 19 17 16 16 16 17 18 16 15 15 14 12 11 11 12 13 14 14 14 13 13 13 13 14 14 14 14 14 15 18 15 14 15
15 17 21 19 20 21 18 17 18 19 20 18 17 16 16 16 17 15 15 13 10 13 9 9 12 16 16 15 14 13 12 13 14 15 17 16 13 14 13 12 16 16 17
13 19 19 20 20 21 21 18 18 20 20 18 18 17 17 16 16 15 14 14 13 12 12 15 15 15 15 14 11 10 10 13 16 17 16 14 14 16 17 17 17 18 17
11 18 19 20 20 20 21 20 19 19 19 18 17 17 18 17 17 15 16 15 13 12 12 13 12 11 10 10 11 9 10 12 13 13 11 12 10 11 13 15 15 15 15
11 16 18 20 20 20 20 21 20 20 20 18 18 17 17 16 16 17 19 17 14 13 11 11 9 7 8 11 11 11 11 12 11 8 8 8 9 8 10 11 11 13 13
12 13 17 18 20 20 19 20 19 19 20 20 18 17 16 15 15 18 18 17 12 12 13 11 8 5 12 12 12 12 12 14 14 8 10 10 10 8 8 9 11 12 14
11 12 14 17 19 20 20 20 20 20 19 19 19 17 16 15 17 20 18 13 11 11 12 12 10 11 12 15 14 14 15 12 12 12 11 11 10 10 8 10 12 14 14
12 11 11 17 19 18 19 19 20 20 21 20 19 18 17 17 19 18 17 11 13 12 13 13 11 15 14 16 14 17 15 13 12 11 10 11 11 10 9 12 14 16 17
11 12 11 14 17 18 19 19 21 22 22 21 20 18 18 17 19 17 14 11 13 14 15 14 13 16 15 15 16 15 14 12 7 11 13 14 11 10 13 13 16 18 18
12 12 13 13 16 16 17 20 21 21 22 22 21 19 17 18 18 16 14 12 12 14 12 17 15 15 16 15 13 11 11 12 8 11 12 15 11 11 12 17 18 19 20
12 13 14 15 16 18 18 19 21 21 22 21 21 20 20 17 16 15 13 14 13 13 12 16 17 13 18 16 15 10 11 10 13 8 12 13 10 11 12 13 14 15 16
15 14 14 16 16 17 16 17 19 20 20 21 21 21 20 18 16 14 13 13 14 12 14 17 18 15 15 15 14 10 10 13 10 10 10 9 9 8 9 10 12 12 12
18 17 16 15 15 16 18 18 16 20 22 23 25 25 24 22 21 17 12 14 14 14 14 17 14 17 15 15 13 10 11 12 10 11 10 11 8 10 9 8 7 7 7
21 21 19 16 15 14 16 20 20 19 21 23 24 25 28 21 22 18 15 16 15 16 19 18 18 17 14 14 13 13 9 10 7 7 11 8 9 10 9 7 8 7 8
22 23 22 20 18 17 17 19 21 21 22 20 24 27 29 22 24 20 17 18 17 19 21 19 19 17 14 15 13 15 12 8 8 11 10 10 13 13 10 10 12 11 13
22 23 23 23 22 21 23 24 23 23 19 22 23 26 28 25 29 24 19 20 18 19 20 20 18 17 18 16 13 15 14 11 7 8 12 12 10 9 11 12 12 13 13
22 22 22 22 22 22 22 24 25 21 21 17 21 24 29 26 29 27 21 21 20 19 18 24 18 17 18 16 15 17 17 14 11 10 9 10 12 12 12 11 14 13 11
17 17 18 18 19 23 24 22 23 21 20 23 22 23 28 29 27 28 27 25 21 20 21 22 20 19 18 19 19 13 14 11 11 10 14 12 13 12 13 14 13 11 15
12 13 16 19 21 22 25 22 22 21 20 18 23 25 24 27 26 28 32 28 23 22 22 21 22 21 21 23 16 15 13 12 12 11 9 13 13 13 11 14 14 14 15
7 9 12 15 19 20 21 21 20 18 17 16 17 23 27 24 26 26 29 31 28 22 21 21 22 21 21 21 16 15 14 12 12 10 11 15 14 14 14 16 14 17 14
5 4 5 11 14 19 20 22 20 19 17 15 15 17 18 25 26 26 25 27 30 26 26 23 18 23 20 23 19 11 9 9 11 11 13 15 16 15 16 16 16 15 12
9 11 5 3 9 16 17 19 17 17 17 15 14 16 19 20 27 26 26 26 30 32 26 28 25 18 20 25 15 11 2 1 3 7 10 11 16 17 19 19 16 14 13
13 12 10 2 2 8 11 14 11 14 15 14 17 16 15 16 22 24 25 26 27 31 34 31 31 29 22 25 23 10 3 4 5 6 9 12 13 19 21 20 17 15 13
18 18 18 9 5 6 9 13 12 12 12 12 13 13 13 17 20 19 22 23 23 28 29 34 33 38 32 26 21 25 13 12 4 3 8 10 13 16 22 21 19 16 16
21 22 22 19 22 4 8 7 6 7 8 9 9 9 9 15 17 20 20 19 25 27 28 35 33 27 33 31 28 27 18 16 15 4 4 7 13 16 19 24 22 20 18
24 24 26 24 24 21 18 8 6 7 7 6 6 7 8 11 12 17 21 22 24 24 26 32 36 35 33 29 31 26 24 17 19 16 7 15 18 17 16 22 23 22 22
Wind_Direction
153 150 170 167 164 163 164 159 165 166 165 158 153 148 148 150 145 142 140 141 140 143 147 154 151 145 137 127 119 111 107 110 120 122 118 116 109 111 115 108 104 105 102
158 160 172 169 166 167 167 165 166 168 169 169 159 157 157 153 151 152 146 140 136 154 144 171 158 142 139 126 122 117 120 112 111 112 108 109 111 112 120 112 121 119 109
161 160 168 173 172 169 172 171 166 173 175 175 168 167 165 161 160 159 154 147 139 127 121 112 123 126 129 128 130 131 131 132 120 110 101 98 96 99 100 106 108 105 103
162 161 174 180 177 176 177 175 177 176 180 179 177 174 171 171 169 166 160 153 148 138 129 130 137 135 141 142 143 142 144 146 140 128 129 113 106 97 102 102 99 98 98
156 162 178 188 184 182 182 179 181 181 183 184 182 180 179 177 175 168 158 156 158 151 148 140 147 136 152 145 142 141 149 154 149 141 129 119 119 105 105 105 104 102 109
163 164 178 194 190 189 187 184 188 188 188 186 184 188 187 184 177 168 164 165 171 164 170 164 156 150 148 149 143 137 139 140 146 148 130 124 98 114 115 126 121 116 112
169 169 165 192 192 193 196 192 192 196 196 196 193 194 193 184 174 165 171 182 171 170 170 167 166 161 141 142 143 136 135 136 136 124 114 123 102 112 115 129 128 124 123
168 172 176 187 192 199 199 199 196 198 197 198 200 201 192 182 174 175 181 188 169 160 163 169 175 159 147 135 127 124 131 122 119 110 108 105 121 98 123 125 132 129 122
177 177 176 184 190 200 204 206 205 202 202 200 197 195 193 184 179 179 181 184 175 166 167 171 182 165 155 149 140 133 123 118 110 118 110 116 112 87 101 128 128 124 117
192 192 190 188 192 201 206 208 207 208 208 204 202 197 191 185 185 182 181 186 179 176 190 181 182 173 169 167 156 161 161 133 122 108 108 119 114 98 99 99 105 107 104
204 207 205 203 200 202 204 206 208 209 210 208 206 197 190 180 180 185 176 186 177 176 185 177 181 171 169 170 162 183 180 171 137 122 130 133 131 106 99 102 102 103 105
206 209 209 212 211 209 201 207 203 206 207 205 201 195 189 188 184 184 184 187 175 178 185 180 177 171 158 161 160 171 197 198 157 149 140 149 150 157 120 115 108 107 107
224 215 211 206 210 215 216 210 207 210 207 206 205 201 195 190 189 176 173 180 181 187 182 178 177 173 183 166 169 176 179 174 168 160 154 156 165 168 148 153 136 142 154
238 225 215 210 210 214 221 220 215 209 209 209 208 202 197 193 177 181 183 183 183 179 174 180 180 184 186 171 171 174 181 158 170 137 144 169 169 148 150 185 169 159 156
233 235 227 223 228 227 225 230 225 213 204 211 208 204 199 192 177 184 185 185 186 182 184 184 188 173 176 179 170 177 184 170 170 162 174 170 161 161 159 158 157 149 141
231 230 236 237 233 232 229 226 230 223 220 202 207 202 196 194 183 184 188 188 188 187 188 183 191 174 175 175 177 186 184 198 202 161 159 175 174 171 177 166 151 150 143
230 232 234 236 229 222 217 220 223 221 222 225 201 201 196 195 191 188 194 190 190 190 190 178 189 176 172 177 182 185 199 181 197 179 151 176 175 183 178 167 163 155 153
232 230 225 226 223 219 213 212 215 217 213 218 211 202 200 201 196 192 194 192 193 188 188 172 181 181 175 188 173 203 185 179 184 172 177 175 180 180 180 184 169 180 176
248 245 237 226 224 213 213 207 207 211 213 208 214 211 204 199 199 199 198 197 195 190 190 176 180 183 187 192 176 193 188 189 197 175 148 180 183 181 192 180 183 185 159
272 271 248 227 218 211 201 200 195 202 205 203 199 214 216 203 200 198 202 203 199 197 191 187 179 187 182 178 183 177 185 191 192 175 184 192 191 197 188 189 189 148 149
7 321 281 232 211 199 190 189 188 194 198 196 199 202 203 216 209 201 198 199 200 197 192 188 193 182 182 178 152 146 145 172 190 196 183 190 197 198 189 185 172 173 170
27 6 350 294 212 193 188 186 188 197 195 195 195 205 212 214 215 207 207 201 199 193 195 188 183 182 182 163 155 144 128 38 211 200 179 192 195 194 188 188 184 177 183
28 14 2 46 181 176 175 176 178 166 169 185 200 199 198 203 214 213 212 211 201 195 194 192 183 176 173 174 168 168 153 192 147 213 199 203 196 195 193 189 188 188 186
18 24 34 41 140 169 171 170 177 169 171 186 193 200 202 204 212 211 213 213 210 202 195 194 187 186 183 175 192 204 201 173 181 167 216 215 199 201 204 192 190 192 193
26 27 34 49 58 97 160 164 162 159 158 167 175 180 197 214 216 219 217 218 209 206 198 195 195 193 193 190 190 192 199 182 185 163 168 191 212 209 214 207 206 204 199
36 29 31 35 38 53 66 99 137 163 164 161 170 178 194 219 226 228 226 222 215 214 205 202 207 201 199 199 201 202 200 185 187 184 210 182 197 205 204 217 212 215 213